[[{"header":{"parameterUnit":"m.s-1","parameterCategory":1,"la1":30.2991,"la2":30.254,"lo1":-89.0895,"lo2":-89.0444,"dy":0.0017,"dx":0.0017,"nx":28,"ny":28,"refTime":"2025-07-24T03:00:00:Z","depth":0,"parameterNumber":2,"parameterNumberName":"U-component_of_WINDS"},"data":[0,0,0,0,0,0,0,0,0,0,0,0,0,0,0,0,0,0,0,0,0,0,0,0,0,0,0,0,0,0,0,0,0,0,0,0,0,0,0,0,0,0,0,0,0,0,0,0,0,0,0,0,0,0,0,0,0,0,0.6802,0.6802,0,0.6805,0.6805,0.6805,0.6785,0.6785,0.6784,0.6783,0.6786,0.6786,0.6787,0,0,0,0,0,0,0,0,0,0,0,0,0,0.6777,0.6777,0.6802,0.6802,0.6802,0.6805,0.6805,0.6805,0.6785,0.6785,0.6784,0.6783,0.6785,0.6786,0.6787,0,0,0,0,0,0,0,0,0,0,0,0,0,0.6785,0.6778,0.6802,0.6793,0.6792,0.6805,0.6805,0.6805,0.6785,0.6785,0.6784,0.6783,0.6785,0.6786,0.6787,0.6809,0,0,0.679,0.679,0,0,0,0,0,0,0,0,0.6784,0.6786,0.6794,0.6793,0.6792,0.6794,0.6797,0.6807,0.6786,0.6788,0.6783,0.6782,0.6789,0.6789,0.6792,0.6809,0.681,0.679,0.679,0.6791,0.6791,0,0,0,0,0,0,0,0.6784,0.6785,0.6803,0.6794,0.6793,0.6787,0.6788,0.6799,0.6793,0.6787,0.6786,0.6787,0.6788,0.6791,0.6792,0.681,0.679,0.679,0.6791,0.6791,0.6843,0.6844,0,0,0,0,0,0,0.6785,0.6785,0.6803,0.6803,0.6786,0.6789,0.6789,0.6794,0.6793,0.6792,0.6787,0.6786,0.679,0.6791,0.6792,0.6816,0.6791,0.6791,0.6792,0.6842,0.6843,0.6844,0,0,0,0,0,0,0.6784,0.6786,0.6803,0.6794,0.6795,0.679,0.6796,0.6795,0.6797,0.6793,0.6792,0.6791,0.6789,0.6791,0.6805,0.6816,0.6792,0.6793,0.6841,0.6843,0.6844,0.6867,0,0,0,0,0,0,0.6784,0.6786,0.6795,0.6794,0.6796,0.6817,0.6797,0.6795,0.6799,0.6797,0.6796,0.6795,0.6789,0.6803,0.6806,0.6817,0.6793,0.684,0.6842,0.6844,0.6865,0.6868,0.6872,0,0,0,0,0,0.6783,0.6802,0.6796,0.6798,0.6807,0.6817,0.6818,0.6811,0.68,0.6809,0.6805,0.6795,0.6815,0.6805,0.6807,0.6819,0.684,0.6842,0.6843,0.6863,0.6868,0.6872,0,0,0,0,0,0,0.6805,0.6802,0.6795,0.6815,0.6816,0.6814,0.6824,0.6816,0.6821,0.6818,0.6809,0.6809,0.6824,0.6823,0.6812,0.684,0.6825,0.6828,0.6839,0.6844,0.6847,0.6846,0.6794,0,0,0,0,0,0.6812,0.6821,0.6818,0.6835,0.6836,0.683,0.6834,0.6828,0.683,0.683,0.6828,0.6829,0.6835,0.684,0.6845,0.6865,0.6863,0.6874,0.6877,0.688,0.6882,0.689,0.6894,0.6851,0.6851,0.6851,0,0,0.6827,0.6826,0.6833,0.6839,0.684,0.6848,0.6831,0.6841,0.6847,0.6832,0.6844,0.6843,0.6843,0.686,0.6867,0.686,0.6894,0.6883,0.6885,0.6885,0.6893,0.6897,0.6901,0.6852,0.6852,0.6852,0,0,0.6858,0.6859,0.6873,0.6874,0.6875,0.687,0.6874,0.6872,0.687,0.6883,0.6871,0.6878,0.6889,0.689,0.6891,0.6921,0.6911,0.6923,0.6941,0.6949,0.6952,0.6955,0.6964,0.6968,0.6925,0.6925,0.6925,0,0.6876,0.6889,0.6881,0.6891,0.6894,0.688,0.6893,0.6895,0.6897,0.6899,0.6891,0.6904,0.6903,0.6919,0.6926,0.6928,0.6931,0.6923,0.6953,0.6956,0.6958,0.6967,0.697,0.6927,0.6927,0.6926,0.6926,0,0.691,0.6919,0.693,0.6933,0.6937,0.6949,0.6941,0.6946,0.694,0.6936,0.6948,0.6947,0.6951,0.6955,0.6949,0.6969,0.6964,0.6955,0.694,0.6964,0.6971,0.6975,0.6929,0.6928,0.6928,0.6927,0,0,0.6956,0.6953,0.6957,0.6957,0.6957,0.6963,0.6973,0.6978,0.6981,0.6983,0.6991,0.7,0.6991,0.6993,0.6987,0.6994,0.7016,0.6984,0.6983,0.6988,0.7036,0.7042,0.7046,0.701,0.701,0.7011,0.7035,0,0.6985,0.7003,0.6995,0.7013,0.702,0.7007,0.7016,0.7016,0.7013,0.7018,0.7014,0.702,0.7008,0.7009,0.7016,0.7012,0.7025,0.701,0.7015,0.7016,0.7014,0.705,0.7057,0.708,0.7038,0.7039,0.7039,0,0.7021,0.7024,0.7043,0.7039,0.7042,0.705,0.7052,0.7058,0.7057,0.7054,0.7056,0.7047,0.7056,0.7042,0.7054,0.7044,0.7046,0.7044,0.7045,0.7044,0.7028,0.7049,0.7088,0.709,0.7044,0.7044,0.7043,0,0.705,0.7059,0.7071,0.7071,0.7068,0.7074,0.7073,0.7072,0.7074,0.7076,0.7077,0.708,0.7082,0.7084,0.7076,0.7067,0.7088,0.7074,0.7085,0.7085,0.7089,0.7089,0.7127,0.7093,0.7092,0.7092,0.7092,0,0.7082,0.7094,0.7083,0.709,0.7103,0.7094,0.7106,0.7103,0.7102,0.7107,0.7097,0.7102,0.7092,0.7096,0.7091,0.71,0.7101,0.7098,0.7096,0.7098,0.7098,0.7098,0.7096,0.7093,0.7093,0.7093,0.7093,0,0.7116,0.711,0.7122,0.7117,0.7116,0.7125,0.7121,0.7127,0.7123,0.713,0.7132,0.7124,0.7129,0.7121,0.7125,0.7121,0.7134,0.713,0.7134,0.7132,0.7143,0.7141,0.7182,0.7186,0.715,0.715,0.7151,0,0.7136,0.7145,0.7141,0.7144,0.7144,0.7149,0.7151,0.7142,0.7145,0.7144,0.715,0.7153,0.7155,0.7163,0.7158,0.716,0.7155,0.7169,0.7155,0.7157,0.7154,0.7153,0.7153,0.7172,0.7172,0.7172,0.7173,0,0.7173,0.7169,0.7172,0.7174,0.7177,0.7179,0.7179,0.7182,0.7173,0.7176,0.718,0.7182,0.7185,0.7188,0.7189,0.7187,0.7178,0.7177,0.7179,0.7181,0.7182,0.718,0.714,0.7176,0.7176,0.7175,0.7175,0.7175,0.7199,0.7205,0.7203,0.7207,0.7207,0.7207,0.7212,0.7208,0.7211,0.7213,0.7207,0.7213,0.721,0.7211,0.721,0.7213,0.7207,0.7211,0.7211,0.7212,0.7213,0.7183,0.7213,0.7213,0.7213,0.7213,0.7213,0,0.7233,0.7231,0.7235,0.7235,0.7238,0.723,0.7229,0.7232,0.7237,0.7236,0.7238,0.7242,0.7244,0.7239,0.7241,0.7244,0.724,0.7245,0.7244,0.7243,0.7219,0.7216,0.7248,0.7248,0.7248,0.7248,0.7248,0.7248,0.7251,0.7261,0.7256,0.7265,0.7263,0.7267,0.7268,0.7267,0.7266,0.7271,0.7273,0.727,0.7267,0.7268,0.7269,0.7268,0.7268,0.7274,0.7271,0.7249,0.7245,0.7242,0.7239,0.7275,0.7275,0.7294,0.7295,0.7295]},{"header":{"parameterUnit":"m.s-1","parameterCategory":1,"la1":30.2991,"la2":30.254,"lo1":-89.0895,"lo2":-89.0444,"dy":0.0017,"dx":0.0017,"nx":28,"ny":28,"refTime":"2025-07-24T03:00:00:Z","depth":0,"parameterNumber":3,"parameterNumberName":"V-component_of_WINDS"},"data":[0,0,0,0,0,0,0,0,0,0,0,0,0,0,0,0,0,0,0,0,0,0,0,0,0,0,0,0,0,0,0,0,0,0,0,0,0,0,0,0,0,0,0,0,0,0,0,0,0,0,0,0,0,0,0,0,0,0,5.9415,5.9417,0,5.9613,5.9615,5.9617,5.9615,5.9612,5.961,5.9607,5.9805,5.9812,5.982,0,0,0,0,0,0,0,0,0,0,0,0,0,5.9027,5.9034,5.9415,5.9417,5.942,5.9612,5.9615,5.9618,5.9615,5.9612,5.9609,5.9606,5.9802,5.9811,5.982,0,0,0,0,0,0,0,0,0,0,0,0,0,5.9207,5.9037,5.9414,5.9442,5.9446,5.9612,5.9615,5.9619,5.9616,5.9612,5.9608,5.9604,5.9799,5.981,5.9822,5.9972,0,0,5.9857,5.9862,0,0,0,0,0,0,0,0,5.9197,5.9221,5.9435,5.944,5.9445,5.9585,5.9551,5.9737,5.9617,5.9551,5.9607,5.9602,5.9734,5.9751,5.9797,5.9981,5.9989,5.9858,5.9865,5.987,5.9873,0,0,0,0,0,0,0,5.9184,5.9213,5.9493,5.9438,5.9444,5.9442,5.9463,5.9586,5.9662,5.9557,5.9557,5.9581,5.9736,5.9785,5.9801,5.9992,5.9858,5.9868,5.9875,5.9879,6.0306,6.031,0,0,0,0,0,0,5.9167,5.9202,5.9486,5.9499,5.9309,5.9452,5.9476,5.9544,5.9661,5.9675,5.9584,5.958,5.9768,5.9788,5.9808,5.9989,5.987,5.9881,5.9887,6.0301,6.0307,6.0311,0,0,0,0,0,0,5.9159,5.9193,5.9479,5.9351,5.9387,5.9463,5.954,5.955,5.9599,5.9682,5.9694,5.9621,5.9765,5.9792,5.9931,5.9996,5.9886,5.9896,6.0296,6.0303,6.0309,6.0354,0,0,0,0,0,0,5.9148,5.919,5.9249,5.9352,5.9394,5.96,5.9544,5.9557,5.962,5.9617,5.9719,5.9733,5.9764,5.9913,5.9942,6.001,5.9905,6.0291,6.0299,6.0307,6.0347,6.0361,6.0374,0,0,0,0,0,5.9134,5.9254,5.9252,5.9287,5.947,5.9604,5.9627,5.9663,5.9625,5.9684,5.9737,5.9729,5.9985,5.9928,5.996,6.0032,6.0287,6.0297,6.0306,6.0341,6.0359,6.0373,0,0,0,0,0,0,5.9155,5.9268,5.9267,5.9425,5.9505,5.9603,5.9679,5.9681,5.9772,5.9765,5.9803,5.9827,5.9965,6.0012,5.9947,6.0182,6.013,6.0147,6.0146,6.0163,6.0176,6.0161,5.9915,0,0,0,0,0,5.9178,5.9279,5.9371,5.9501,5.9541,5.9603,5.9663,5.9683,5.9767,5.9801,5.9863,5.9943,6.0041,6.0105,6.02,6.0354,6.0375,6.0419,6.0433,6.0443,6.0457,6.0539,6.0559,6.0344,6.0344,6.0344,0,0,5.9227,5.9301,5.9362,5.9507,5.9571,5.9673,5.9632,5.9741,5.9816,5.9817,5.9952,6.0,6.0092,6.0238,6.0306,6.0282,6.0521,6.0456,6.0464,6.0472,6.0551,6.0572,6.059,6.0351,6.0349,6.0348,0,0,5.9366,5.9434,5.9548,5.9613,5.9712,5.9752,5.9779,5.9878,5.991,6.0046,6.0048,6.0136,6.0305,6.0369,6.0424,6.0586,6.0581,6.0615,6.0685,6.0764,6.0781,6.0796,6.0852,6.0872,6.0629,6.0629,6.0629,0,5.9414,5.9569,5.9606,5.9716,5.9778,5.9784,5.9898,5.9959,6.0083,6.0125,6.0097,6.0307,6.037,6.053,6.0569,6.0614,6.0644,6.0604,6.0776,6.0792,6.0807,6.086,6.0881,6.0633,6.0632,6.0632,6.0631,0,5.9621,5.9728,5.9808,5.9928,5.9999,6.0111,6.0162,6.0229,6.0243,6.0285,6.0422,6.0496,6.0605,6.0645,6.0659,6.0807,6.0789,6.0768,6.0717,6.083,6.088,6.0901,6.0637,6.0636,6.0635,6.0634,0,0,5.978,5.9919,5.9947,6.0001,6.0109,6.0191,6.0301,6.0409,6.0465,6.0549,6.0641,6.0783,6.0764,6.0826,6.0847,6.0917,6.1037,6.0888,6.089,6.0911,6.1201,6.1215,6.1239,6.1035,6.1039,6.1043,6.1193,0,5.993,6.0128,6.0163,6.0335,6.0433,6.0439,6.0534,6.0609,6.0651,6.0738,6.0783,6.0882,6.0851,6.0888,6.0958,6.1008,6.1096,6.0998,6.1118,6.1122,6.1094,6.1266,6.1281,6.142,6.1213,6.1217,6.1219,0,6.0132,6.0222,6.0404,6.0497,6.0539,6.0625,6.0725,6.0809,6.0893,6.0918,6.0987,6.0999,6.111,6.1055,6.1207,6.114,6.1191,6.1223,6.1229,6.124,6.1177,6.128,6.1465,6.1485,6.1251,6.1249,6.1246,0,6.0228,6.0395,6.0525,6.057,6.0682,6.0742,6.0791,6.0871,6.0933,6.102,6.1059,6.1158,6.1211,6.1286,6.1323,6.1279,6.1472,6.142,6.1494,6.1493,6.1534,6.153,6.1728,6.1569,6.1569,6.1568,6.1568,0,6.0391,6.0501,6.0569,6.0648,6.0771,6.0809,6.0929,6.0976,6.1047,6.1134,6.1145,6.1226,6.1271,6.1358,6.1387,6.1508,6.1532,6.1554,6.156,6.1552,6.1549,6.1586,6.1576,6.1574,6.1573,6.1571,6.1571,0,6.0519,6.0569,6.071,6.0804,6.083,6.0916,6.0996,6.1072,6.1112,6.1222,6.125,6.1313,6.1416,6.1461,6.1587,6.1606,6.1743,6.1743,6.1715,6.1717,6.1788,6.178,6.2015,6.2046,6.1868,6.1869,6.1871,0,6.0619,6.0704,6.0807,6.0867,6.0918,6.1014,6.1077,6.1116,6.1181,6.1282,6.1345,6.1448,6.1532,6.1695,6.1751,6.1847,6.1848,6.1924,6.1862,6.1851,6.1847,6.1841,6.1848,6.1934,6.1936,6.1937,6.1939,0,6.0791,6.0811,6.0903,6.1002,6.1077,6.1157,6.1235,6.1282,6.1334,6.1405,6.1511,6.1576,6.1705,6.1806,6.1904,6.1952,6.1953,6.1958,6.1979,6.1972,6.1951,6.1961,6.1744,6.1952,6.1951,6.195,6.1949,6.1948,6.0908,6.0982,6.1066,6.1166,6.1229,6.1301,6.1377,6.1427,6.1516,6.1625,6.1642,6.1754,6.1832,6.1965,6.2017,6.2103,6.2084,6.2116,6.2124,6.2131,6.2134,6.1938,6.2121,6.2121,6.212,6.212,6.212,0,6.1079,6.1132,6.1224,6.1333,6.1411,6.1407,6.1492,6.1557,6.1656,6.173,6.1813,6.1933,6.203,6.2093,6.2191,6.2248,6.225,6.2272,6.2267,6.2278,6.2147,6.2117,6.2268,6.2268,6.2268,6.2268,6.2268,6.2267,6.1177,6.1303,6.1332,6.1487,6.154,6.1651,6.1699,6.1765,6.1824,6.1957,6.2039,6.208,6.2149,6.2251,6.2339,6.2355,6.239,6.2412,6.2427,6.2303,6.2287,6.2273,6.2245,6.242,6.242,6.255,6.2551,6.2552]}]]